Showing default

IRIDIUM 109, 41919

Orbit data source: Space-Track

IRIDIUM 109, 41919 is a payload satellite owned by Iridium (US) in LEO that was launched on Sat, 14 Jan 2017 UTC via an FALCON 9 launch vehicle from the Air Force Western Test Range (AFWTR). Payload-class satellites include a variety of spacecraft equipped with specific instruments for various scientific and technological missions. These include communications satellites like Starlink; space stations such as the ISS; scientific satellites like the Hubble; Earth observation satellites from companies like Planet Labs, Umbra, and HawkEye 360; GPS; miniature CubeSats for education and research; and military/defense satellites.

Loading next visibility...
Identifier
41919, 2017-003C
Orbit
LEO
Country
Flag of USUS
Related business
Manufacturer
OATK SSG Gilbert
Mission
Operational Commercial Communications
Bus & Motor
ELITEBUS, Unknown motor
Mass
860 kg wet, 700 kg dry
Launch date (UTC)
2017-01-14 (9 years ago)
Launch vehicle
FALCON 9
Launch site
Air Force Western Test Range (AFWTR)
Object type
Payload
Rocket body
Debris
Shape & HBR
Trap Box + 2 Pan, 4.8 m
Radar Cross Section
10.154 m², Large (>1 m²)

Expand to show TLE details & history
Last TLE update: 10 hours ago

TLE from 10 hours ago
0 IRIDIUM 109
1 41919U 17003C   25302.43442187  .00000192  00000-0  61409-4 0  9996
2 41919  86.4029 184.9016 0002207  80.6982 279.4463 14.34216229460120
Epoch: 2025-10-29T10:25Z
TLE epoch observation values (Epoch: 2025-10-29T10:25:34.049Z)
Latitude
-0.00006°
Longitude
-9.49789°
Altitude
780.464 km
Speed
7.464 km/s
True Right ascension
12h 19m 36s
True Declination
0° 00' 00"
Sunlit
Object was in daylight at epoch
Visualization orbit readout
Latitude
Unknown
Longitude
Unknown
Altitude
Unknown
Speed
Unknown
Apparent Right ascension
Unknown
Apparent Declination
Unknown
Sunlit
N/A
Visualization observer readout
Local Sidereal Time
16:07:27
Azimuth
Unknown
Elevation
Unknown
Doppler factor
Unknown
Orbital elements
Apogee altitude
776.215 km
Perigee altitude
773.058 km
Semi-major axis
7,152.774 km
Eccentricity
0.00022
Inclination
86.4029°
RAAN
184.9016°
Arg. of periapsis
80.6982°
True anomaly
279.42135°
Mean anomaly
279.4463°
Eccentric anomaly
279.43383°
Mean motion
3.58783 °/min
Orbital period
100.34 mins
BSTAR
0.000061409
Loading maneuver chart data...
Computing Atmospheric mass density...
Loading historical data...
Loading historical data...
Loading historical data...
Loading historical data...
Loading historical data...
Loading historical data...
Loading historical data...

Documentation

Showing up to 5 results
|